| time (UTC) | temp C | wind direction | speed KPH | gust KPH | rain 1hr cm | rain 24hr cm | rain mn cm | humidity % | barometer mb |
| 20260504223345 | 18 | 134 | 11.3 | 22.5 | 0.00 | 0.00 | 0.00 | 48 | 1012.0 |
| 20260504222842 | 18 | 179 | 11.3 | 25.7 | 0.00 | 0.00 | 0.00 | 48 | 1012.1 |
| 20260504222339 | 18 | 177 | 6.4 | 11.3 | 0.00 | 0.00 | 0.00 | 48 | 1012.2 |
| 20260504221837 | 18 | 132 | 8.0 | 12.9 | 0.00 | 0.00 | 0.00 | 48 | 1012.3 |
| 20260504221333 | 18 | 145 | 11.3 | 24.1 | 0.00 | 0.00 | 0.00 | 47 | 1012.4 |
| 20260504220831 | 18 | 145 | 8.0 | 20.9 | 0.00 | 0.00 | 0.00 | 47 | 1012.3 |
| 20260504220327 | 18 | 98 | 11.3 | 16.1 | 0.00 | 0.00 | 0.00 | 45 | 1012.0 |
| 20260504215825 | 18 | 141 | 14.5 | 17.7 | 0.00 | 0.00 | 0.00 | 45 | 1012.0 |
| 20260504215321 | 18 | 153 | 9.7 | 17.7 | 0.00 | 0.00 | 0.00 | 45 | 1011.8 |
| 20260504214817 | 18 | 143 | 8.0 | 17.7 | 0.00 | 0.00 | 0.00 | 44 | 1012.1 |
| 20260504214314 | 19 | 161 | 20.9 | 29.0 | 0.00 | 0.00 | 0.00 | 43 | 1012.0 |
| 20260504213811 | 19 | 150 | 11.3 | 14.5 | 0.00 | 0.00 | 0.00 | 43 | 1011.9 |
| 20260504213307 | 19 | 171 | 14.5 | 25.7 | 0.00 | 0.00 | 0.00 | 42 | 1011.9 |
| 20260504212804 | 19 | 162 | 8.0 | 16.1 | 0.00 | 0.00 | 0.00 | 41 | 1011.8 |
| 20260504212300 | 20 | 157 | 8.0 | 11.3 | 0.00 | 0.00 | 0.00 | 42 | 1011.6 |
| 20260504211758 | 20 | 152 | 8.0 | 22.5 | 0.00 | 0.00 | 0.00 | 40 | 1011.8 |
| 20260504211254 | 21 | 143 | 11.3 | 16.1 | 0.00 | 0.00 | 0.00 | 38 | 1011.6 |
| 20260504210751 | 20 | 141 | 16.1 | 20.9 | 0.00 | 0.00 | 0.00 | 36 | 1011.7 |
| 20260504210249 | 20 | 127 | 8.0 | 14.5 | 0.00 | 0.00 | 0.00 | 38 | 1012.0 |
| 20260504205746 | 20 | 143 | 19.3 | 24.1 | 0.00 | 0.00 | 0.00 | 36 | 1012.0 |
| 20260504205243 | 20 | 158 | 14.5 | 20.9 | 0.00 | 0.00 | 0.00 | 36 | 1011.9 |
| 20260504204741 | 20 | 174 | 12.9 | 25.7 | 0.00 | 0.00 | 0.00 | 36 | 1011.6 |
| 20260504204239 | 21 | 153 | 11.3 | 22.5 | 0.00 | 0.00 | 0.00 | 36 | 1011.7 |
| 20260504203738 | 20 | 152 | 4.8 | 17.7 | 0.00 | 0.00 | 0.00 | 37 | 1011.8 |
| 20260504203235 | 21 | 172 | 9.7 | 20.9 | 0.00 | 0.00 | 0.00 | 37 | 1011.7 |
| 20260504202735 | 20 | 144 | 17.7 | 25.7 | 0.00 | 0.00 | 0.00 | 36 | 1011.9 |
| 20260504202233 | 20 | 177 | 11.3 | 16.1 | 0.00 | 0.00 | 0.00 | 39 | 1012.1 |
| 20260504201730 | 20 | 158 | 4.8 | 14.5 | 0.00 | 0.00 | 0.00 | 38 | 1012.0 |
| 20260504201227 | 20 | 195 | 16.1 | 20.9 | 0.00 | 0.00 | 0.00 | 35 | 1012.2 |
| 20260504200724 | 20 | 151 | 8.0 | 20.9 | 0.00 | 0.00 | 0.00 | 36 | 1012.1 |
| 20260504200220 | 20 | 196 | 6.4 | 12.9 | 0.00 | 0.00 | 0.00 | 36 | 1012.2 |
| 20260504195717 | 21 | 169 | 8.0 | 16.1 | 0.00 | 0.00 | 0.00 | 37 | 1011.9 |
| 20260504195213 | 20 | 165 | 9.7 | 22.5 | 0.00 | 0.00 | 0.00 | 37 | 1012.2 |
| 20260504194710 | 20 | 139 | 11.3 | 17.7 | 0.00 | 0.00 | 0.00 | 37 | 1012.0 |
| 20260504194206 | 21 | 156 | 12.9 | 14.5 | 0.00 | 0.00 | 0.00 | 36 | 1012.0 |
| 20260504193703 | 21 | 172 | 9.7 | 11.3 | 0.00 | 0.00 | 0.00 | 34 | 1012.0 |
| 20260504193200 | 21 | 177 | 11.3 | 17.7 | 0.00 | 0.00 | 0.00 | 36 | 1012.0 |
| 20260504192659 | 20 | 154 | 12.9 | 17.7 | 0.00 | 0.00 | 0.00 | 36 | 1012.2 |
| 20260504192156 | 20 | 121 | 3.2 | 16.1 | 0.00 | 0.00 | 0.00 | 37 | 1012.2 |
| 20260504191654 | 20 | 166 | 14.5 | 25.7 | 0.00 | 0.00 | 0.00 | 35 | 1012.2 |
| 20260504191150 | 21 | 168 | 16.1 | 20.9 | 0.00 | 0.00 | 0.00 | 34 | 1012.2 |
| 20260504190646 | 21 | 169 | 4.8 | 12.9 | 0.00 | 0.00 | 0.00 | 34 | 1012.2 |
| 20260504190143 | 20 | 169 | 14.5 | 20.9 | 0.00 | 0.00 | 0.00 | 34 | 1012.5 |
| 20260504185639 | 20 | 145 | 11.3 | 24.1 | 0.00 | 0.00 | 0.00 | 36 | 1012.4 |
| 20260504185136 | 20 | 177 | 17.7 | 25.7 | 0.00 | 0.00 | 0.00 | 34 | 1012.1 |
| 20260504184631 | 21 | 123 | 8.0 | 17.7 | 0.00 | 0.00 | 0.00 | 34 | 1012.4 |
| 20260504184127 | 20 | 148 | 6.4 | 14.5 | 0.00 | 0.00 | 0.00 | 34 | 1012.5 |
| 20260504183624 | 20 | 155 | 22.5 | 27.4 | 0.00 | 0.00 | 0.00 | 33 | 1012.3 |
| 20260504183122 | 20 | 125 | 9.7 | 22.5 | 0.00 | 0.00 | 0.00 | 34 | 1012.5 |
| 20260504182620 | 20 | 121 | 14.5 | 20.9 | 0.00 | 0.00 | 0.00 | 33 | 1012.8 |
| 20260504182117 | 20 | 164 | 12.9 | 33.8 | 0.00 | 0.00 | 0.00 | 36 | 1012.8 |
| 20260504181614 | 20 | 159 | 16.1 | 29.0 | 0.00 | 0.00 | 0.00 | 34 | 1012.5 |
| 20260504181111 | 20 | 82 | 9.7 | 20.9 | 0.00 | 0.00 | 0.00 | 36 | 1012.7 |
| 20260504180610 | 20 | 176 | 24.1 | 32.2 | 0.00 | 0.00 | 0.00 | 33 | 1012.9 |
| 20260504180109 | 20 | 164 | 11.3 | 17.7 | 0.00 | 0.00 | 0.00 | 35 | 1012.9 |
| 20260504175606 | 20 | 165 | 9.7 | 16.1 | 0.00 | 0.00 | 0.00 | 35 | 1012.8 |
| 20260504175102 | 20 | 176 | 14.5 | 20.9 | 0.00 | 0.00 | 0.00 | 34 | 1012.9 |
| 20260504174601 | 20 | 198 | 20.9 | 27.4 | 0.00 | 0.00 | 0.00 | 34 | 1013.1 |
| 20260504174057 | 20 | 167 | 19.3 | 33.8 | 0.00 | 0.00 | 0.00 | 33 | 1012.9 |
| 20260504173554 | 20 | 195 | 14.5 | 25.7 | 0.00 | 0.00 | 0.00 | 33 | 1013.1 |
| 20260504173052 | 19 | 159 | 11.3 | 29.0 | 0.00 | 0.00 | 0.00 | 35 | 1012.9 |
| 20260504172547 | 19 | 181 | 17.7 | 22.5 | 0.00 | 0.00 | 0.00 | 35 | 1013.1 |
| 20260504172044 | 19 | 168 | 8.0 | 17.7 | 0.00 | 0.00 | 0.00 | 35 | 1013.0 |
| 20260504171541 | 19 | 180 | 32.2 | 41.8 | 0.00 | 0.00 | 0.00 | 34 | 1013.3 |
| 20260504171038 | 19 | 190 | 24.1 | 41.8 | 0.00 | 0.00 | 0.00 | 34 | 1013.6 |
| 20260504170534 | 20 | 185 | 16.1 | 27.4 | 0.00 | 0.00 | 0.00 | 35 | 1013.4 |
| 20260504150918 | 17 | 159 | 17.7 | 32.2 | 0.00 | 0.00 | 0.00 | 40 | 1014.5 |
| 20260504150414 | 16 | 151 | 9.7 | 40.2 | 0.00 | 0.00 | 0.00 | 40 | 1014.3 |
| 20260504140841 | 16 | 143 | 19.3 | 37.0 | 0.00 | 0.00 | 0.00 | 43 | 1015.0 |
| 20260504140337 | 16 | 167 | 11.3 | 22.5 | 0.00 | 0.00 | 0.00 | 43 | 1015.0 |
| 20260504130806 | 15 | 135 | 4.8 | 9.7 | 0.00 | 0.00 | 0.00 | 48 | 1015.3 |
| 20260504130302 | 14 | 152 | 12.9 | 16.1 | 0.00 | 0.00 | 0.00 | 46 | 1015.7 |
| 20260504120225 | 9 | 130 | 3.2 | 3.2 | 0.00 | 0.00 | 0.00 | 65 | 1015.9 |
| 20260504110653 | 5 | 139 | 3.2 | 3.2 | 0.00 | 0.00 | 0.00 | 80 | 1016.4 |
| 20260504110149 | 5 | 128 | 1.6 | 3.2 | 0.00 | 0.00 | 0.00 | 83 | 1016.3 |
| 20260504100615 | 2 | 115 | 0.0 | 0.0 | 0.00 | 0.00 | 0.00 | 94 | 1016.0 |
| 20260504100113 | 1 | 114 | 0.0 | 0.0 | 0.00 | 0.00 | 0.00 | 94 | 1015.8 |
| 20260504081506 | 3 | 113 | 0.0 | 0.0 | 0.00 | 0.00 | 0.00 | 86 | 1015.4 |
| 20260504081000 | 3 | 113 | 0.0 | 0.0 | 0.00 | 0.00 | 0.00 | 85 | 1015.4 |
| 20260504080457 | 3 | 113 | 0.0 | 0.0 | 0.00 | 0.00 | 0.00 | 83 | 1015.4 |
| 20260504050259 | 2 | 116 | 1.6 | 1.6 | 0.00 | 0.00 | 0.00 | 87 | 1015.3 |
| 20260504045757 | 2 | 126 | 1.6 | 1.6 | 0.00 | 0.00 | 0.00 | 90 | 1015.3 |
| 20260504045256 | 2 | 120 | 1.6 | 1.6 | 0.00 | 0.00 | 0.00 | 91 | 1015.2 |
| 20260504044754 | 2 | 116 | 1.6 | 1.6 | 0.00 | 0.00 | 0.00 | 89 | 1015.2 |
| 20260504044252 | 2 | 119 | 0.0 | 1.6 | 0.00 | 0.00 | 0.00 | 89 | 1015.2 |
| 20260504043748 | 2 | 119 | 1.6 | 1.6 | 0.00 | 0.00 | 0.00 | 89 | 1015.6 |
| 20260504043245 | 2 | 119 | 1.6 | 1.6 | 0.00 | 0.00 | 0.00 | 88 | 1015.4 |
| 20260504042743 | 2 | 116 | 0.0 | 0.0 | 0.00 | 0.00 | 0.00 | 90 | 1015.3 |
| 20260504042239 | 3 | 117 | 0.0 | 1.6 | 0.00 | 0.00 | 0.00 | 90 | 1015.1 |
| 20260504041736 | 3 | 118 | 1.6 | 1.6 | 0.00 | 0.00 | 0.00 | 89 | 1015.4 |
| 20260504041232 | 3 | 115 | 0.0 | 0.0 | 0.00 | 0.00 | 0.00 | 89 | 1015.1 |
| 20260504040728 | 2 | 115 | 0.0 | 0.0 | 0.00 | 0.00 | 0.00 | 89 | 1015.0 |
| 20260504040226 | 2 | 115 | 0.0 | 0.0 | 0.00 | 0.00 | 0.00 | 91 | 1015.1 |
| 20260504035722 | 2 | 117 | 0.0 | 3.2 | 0.00 | 0.00 | 0.00 | 91 | 1015.2 |
| 20260504035219 | 2 | 115 | 0.0 | 0.0 | 0.00 | 0.00 | 0.00 | 91 | 1014.9 |
| 20260504034716 | 2 | 116 | 0.0 | 0.0 | 0.00 | 0.00 | 0.00 | 89 | 1014.9 |
| 20260504034214 | 2 | 120 | 1.6 | 3.2 | 0.00 | 0.00 | 0.00 | 90 | 1015.1 |
| 20260504033711 | 2 | 126 | 1.6 | 3.2 | 0.00 | 0.00 | 0.00 | 91 | 1014.9 |
| 20260504033208 | 2 | 119 | 1.6 | 3.2 | 0.00 | 0.00 | 0.00 | 90 | 1015.0 |
| 20260504032705 | 2 | 119 | 1.6 | 1.6 | 0.00 | 0.00 | 0.00 | 91 | 1014.9 |
| 20260504032202 | 2 | 111 | 1.6 | 1.6 | 0.00 | 0.00 | 0.00 | 92 | 1014.6 |
| 20260504031659 | 2 | 110 | 0.0 | 1.6 | 0.00 | 0.00 | 0.00 | 93 | 1014.8 |
| 20260504031155 | 2 | 110 | 0.0 | 0.0 | 0.00 | 0.00 | 0.00 | 92 | 1014.8 |
| 20260504030652 | 2 | 111 | 0.0 | 1.6 | 0.00 | 0.00 | 0.00 | 92 | 1015.0 |
| 20260504030149 | 2 | 107 | 1.6 | 1.6 | 0.00 | 0.00 | 0.00 | 92 | 1014.8 |
| 20260504025646 | 2 | 111 | 0.0 | 0.0 | 0.00 | 0.00 | 0.00 | 92 | 1014.9 |
| 20260504025142 | 2 | 111 | 0.0 | 0.0 | 0.00 | 0.00 | 0.00 | 92 | 1014.7 |
| 20260504024640 | 2 | 110 | 0.0 | 0.0 | 0.00 | 0.00 | 0.00 | 90 | 1014.8 |
| 20260504024136 | 2 | 108 | 0.0 | 0.0 | 0.00 | 0.00 | 0.00 | 89 | 1014.6 |
| 20260504023633 | 2 | 107 | 0.0 | 1.6 | 0.00 | 0.00 | 0.00 | 88 | 1014.5 |
| 20260504023129 | 3 | 113 | 0.0 | 1.6 | 0.00 | 0.00 | 0.00 | 88 | 1014.5 |
| 20260504022626 | 3 | 112 | 0.0 | 0.0 | 0.00 | 0.00 | 0.00 | 87 | 1014.5 |
| 20260504022121 | 2 | 114 | 0.0 | 0.0 | 0.00 | 0.00 | 0.00 | 86 | 1014.8 |
| 20260504021620 | 3 | 113 | 0.0 | 1.6 | 0.00 | 0.00 | 0.00 | 85 | 1014.6 |
| 20260504021116 | 3 | 120 | 1.6 | 1.6 | 0.00 | 0.00 | 0.00 | 84 | 1014.4 |
| 20260504020613 | 2 | 119 | 0.0 | 0.0 | 0.00 | 0.00 | 0.00 | 85 | 1014.4 |
| 20260504020109 | 3 | 117 | 1.6 | 1.6 | 0.00 | 0.00 | 0.00 | 87 | 1014.4 |
| 20260504015606 | 3 | 114 | 0.0 | 1.6 | 0.00 | 0.00 | 0.00 | 85 | 1014.3 |
| 20260504015102 | 3 | 114 | 0.0 | 0.0 | 0.00 | 0.00 | 0.00 | 83 | 1014.3 |
| 20260504014558 | 3 | 114 | 0.0 | 0.0 | 0.00 | 0.00 | 0.00 | 80 | 1014.3 |
| 20260504014055 | 3 | 114 | 0.0 | 0.0 | 0.00 | 0.00 | 0.00 | 81 | 1014.4 |
| 20260504013553 | 3 | 114 | 0.0 | 1.6 | 0.00 | 0.00 | 0.00 | 80 | 1014.2 |
| 20260504013050 | 3 | 114 | 0.0 | 0.0 | 0.00 | 0.00 | 0.00 | 79 | 1014.2 |
| 20260504012547 | 3 | 114 | 0.0 | 0.0 | 0.00 | 0.00 | 0.00 | 80 | 1014.1 |
| 20260504012045 | 4 | 111 | 0.0 | 0.0 | 0.00 | 0.00 | 0.00 | 81 | 1014.0 |
| 20260504011541 | 4 | 112 | 0.0 | 0.0 | 0.00 | 0.00 | 0.00 | 76 | 1014.1 |
| 20260504011037 | 4 | 112 | 0.0 | 0.0 | 0.00 | 0.00 | 0.00 | 72 | 1014.0 |
| 20260504010533 | 4 | 112 | 0.0 | 0.0 | 0.00 | 0.00 | 0.00 | 74 | 1013.7 |
| 20260504010030 | 5 | 111 | 0.0 | 0.0 | 0.00 | 0.00 | 0.00 | 75 | 1013.6 |
| 20260504005526 | 5 | 111 | 0.0 | 0.0 | 0.00 | 0.00 | 0.00 | 71 | 1013.7 |
| 20260504005024 | 5 | 111 | 0.0 | 0.0 | 0.00 | 0.00 | 0.00 | 72 | 1013.7 |
| 20260504004522 | 5 | 110 | 0.0 | 0.0 | 0.00 | 0.00 | 0.00 | 66 | 1013.7 |
| 20260504004018 | 5 | 110 | 0.0 | 0.0 | 0.00 | 0.00 | 0.00 | 64 | 1013.6 |
| 20260504003515 | 6 | 112 | 0.0 | 0.0 | 0.00 | 0.00 | 0.00 | 63 | 1013.7 |
| 20260504003012 | 6 | 115 | 0.0 | 1.6 | 0.00 | 0.00 | 0.00 | 60 | 1013.5 |
| 20260504002509 | 6 | 115 | 0.0 | 3.2 | 0.00 | 0.00 | 0.00 | 59 | 1013.5 |
| 20260504002006 | 7 | 116 | 0.0 | 1.6 | 0.00 | 0.00 | 0.00 | 60 | 1013.1 |
| 20260504001503 | 7 | 116 | 0.0 | 0.0 | 0.00 | 0.00 | 0.00 | 61 | 1012.9 |
| 20260504000959 | 7 | 116 | 0.0 | 0.0 | 0.00 | 0.00 | 0.00 | 57 | 1013.0 |
| 20260504000457 | 8 | 108 | 0.0 | 1.6 | 0.00 | 0.00 | 0.00 | 54 | 1013.0 |
| 20260503235954 | 8 | 110 | 0.0 | 0.0 | 0.00 | 0.00 | 0.00 | 49 | 1013.0 |
| 20260503235452 | 8 | 107 | 0.0 | 0.0 | 0.00 | 0.00 | 0.00 | 48 | 1013.1 |
| 20260503234949 | 8 | 113 | 0.0 | 0.0 | 0.00 | 0.00 | 0.00 | 47 | 1012.9 |
| 20260503234446 | 8 | 83 | 1.6 | 3.2 | 0.00 | 0.00 | 0.00 | 48 | 1013.0 |
| 20260503233944 | 9 | 118 | 0.0 | 1.6 | 0.00 | 0.00 | 0.00 | 46 | 1013.0 |
| 20260503233440 | 9 | 121 | 0.0 | 1.6 | 0.00 | 0.00 | 0.00 | 46 | 1012.9 |
| 20260503232937 | 10 | 122 | 0.0 | 1.6 | 0.00 | 0.00 | 0.00 | 46 | 1012.6 |
| 20260503232434 | 10 | 142 | 1.6 | 11.3 | 0.00 | 0.00 | 0.00 | 46 | 1012.6 |
| 20260503231932 | 10 | 92 | 0.0 | 1.6 | 0.00 | 0.00 | 0.00 | 45 | 1012.7 |
| 20260503231429 | 10 | 141 | 3.2 | 3.2 | 0.00 | 0.00 | 0.00 | 45 | 1012.6 |
| 20260503230925 | 10 | 178 | 1.6 | 3.2 | 0.00 | 0.00 | 0.00 | 45 | 1012.5 |
| 20260503230422 | 10 | 193 | 1.6 | 9.7 | 0.00 | 0.00 | 0.00 | 44 | 1012.6 |
| 20260503225920 | 10 | 12 | 3.2 | 8.0 | 0.00 | 0.00 | 0.00 | 43 | 1012.8 |
| 20260503225416 | 10 | 127 | 1.6 | 8.0 | 0.00 | 0.00 | 0.00 | 44 | 1012.9 |
| 20260503224912 | 10 | 163 | 1.6 | 4.8 | 0.00 | 0.00 | 0.00 | 42 | 1012.7 |
| 20260503224409 | 10 | 90 | 4.8 | 11.3 | 0.00 | 0.00 | 0.00 | 43 | 1012.8 |
| 20260503223907 | 10 | 148 | 3.2 | 8.0 | 0.00 | 0.00 | 0.00 | 42 | 1012.7 |